Location: Unspecified
(64.9000°N, 0.0000°E)
Time: 07:33:20
(UTC+00:00)

Transit 2A Rocket - Pass Details

Date: 20 June 2019
Orbit: 588 x 915 km, 66.7° (Epoch: 17 July)

Event Time Altitude Azimuth Distance (km) Brightness Sun altitude
Rises 15:22:31 0° 277° (W) 3,504 9.1 37.5°
Reaches altitude 10° 15:25:07 10° 279° (W) 2,532 8.5 37.3°
Maximum altitude 15:31:00 75° 5° (N) 861 5.8 36.7°
Drops below altitude 10° 15:36:24 10° 92° (E) 2,328 7.2 36.2°
Sets 15:38:42 0° 94° (E) 3,202 7.8 36.0°
